Weather History for KO69 - October, 2013

Change the Weather History Date:

Thursday, October 3, 2013

  Actual Average (KAPC) Record (KAPC)
Temperature  
Mean Temperature 60 °F 61 °F  
Max Temperature 75 °F 77 °F 94 °F (2014)
Min Temperature 44 °F 45 °F 38 °F (2005)
Degree Days  
Heating Degree Days 6    
Month to date heating degree days  
Since 1 July heating degree days  
Cooling Degree Days 0    
Month to date cooling degree days  
Year to date cooling degree days  
Growing Degree Days 10 (Base 50)    
Moisture  
Dew Point 33 °F    
Average Humidity 41    
Maximum Humidity 81    
Minimum Humidity 15    
Precipitation  
Precipitation 0.00 in - 0.97 in (1922)
Month to date precipitation  
Year to date precipitation  
Since 1 July precipitation  
Sea Level Pressure  
Sea Level Pressure 30.04 in    
Wind  
Wind Speed 8 mph (NW)    
Max Wind Speed 17 mph    
Max Gust Speed 25 mph    
Visibility 10 miles    
Events      
T = Trace of Precipitation, MM = Missing Value Source: NWS Daily Summary

Daily Weather History Graph

Daily Weather History Graph

Search for Another Location

Airport or City:

Trip Planner

Search our weather history database for the weather conditions in past years. The results will help you decide how hot, cold, wet, or windy it might be!

Date:

Astronomy

Oct. 03, 2013 Rise Set
Actual Time 7:08 AM PDT 6:49 PM PDT
Civil Twilight 6:41 AM PDT 7:16 PM PDT
Nautical Twilight 6:11 AM PDT 7:46 PM PDT
Astronomical Twilight 5:40 AM PDT 8:17 PM PDT
Moon 5:48 AM PDT (10/3) 6:01 PM PDT (10/3)
Length of Visible Light 12h 34m
Length of Day
11h 41m
Waning Crescent, 2% of the Moon is Illuminated
Oct 3
Waning Crescent
Oct 4
New
Oct 11
First Quarter
Oct 18
Full
Oct 26
Last Quarter

Hourly Weather History & Observations

Time (PDT) Temp. Windchill Dew Point Humidity Pressure Visibility Wind Dir Wind Speed Gust Speed Precip Events Conditions
12:15 AM 53.6 °F - 39.2 °F 58% 30.05 in 10.0 mi West 5.8 mph - N/A   Scattered Clouds
12:35 AM 50.0 °F - 39.2 °F 66% 30.03 in 10.0 mi WNW 10.4 mph - N/A   Mostly Cloudy
12:55 AM 50.0 °F - 39.2 °F 66% 30.05 in 10.0 mi West 6.9 mph - N/A   Overcast
1:15 AM 50.0 °F - 39.2 °F 66% 30.05 in 10.0 mi WNW 8.1 mph - N/A   Overcast
1:35 AM 50.0 °F - 39.2 °F 66% 30.05 in 10.0 mi West 6.9 mph - N/A   Overcast
1:55 AM 48.2 °F - 39.2 °F 71% 30.06 in 10.0 mi WNW 8.1 mph - N/A   Overcast
2:15 AM 48.2 °F - 39.2 °F 71% 30.06 in 10.0 mi NW 4.6 mph - N/A   Overcast
2:35 AM 48.2 °F - 39.2 °F 71% 30.06 in 10.0 mi Calm Calm - N/A   Overcast
2:55 AM 48.2 °F - 39.2 °F 71% 30.06 in 10.0 mi WNW 5.8 mph - N/A   Overcast
3:15 AM 51.8 °F - 39.2 °F 62% 30.06 in 10.0 mi WNW 8.1 mph - N/A   Scattered Clouds
3:35 AM 50.0 °F - 39.2 °F 66% 30.06 in 10.0 mi West 5.8 mph - N/A   Clear
3:55 AM 51.8 °F - 39.2 °F 62% 30.07 in 10.0 mi WNW 5.8 mph - N/A   Clear
4:15 AM 50.0 °F - 39.2 °F 66% 30.07 in 10.0 mi WNW 6.9 mph - N/A   Clear
4:35 AM 50.0 °F - 37.4 °F 62% 30.06 in 10.0 mi WNW 9.2 mph - N/A   Clear
4:55 AM 48.2 °F - 37.4 °F 66% 30.07 in 10.0 mi WNW 8.1 mph - N/A   Clear
5:15 AM 50.0 °F - 37.4 °F 62% 30.07 in 10.0 mi West 8.1 mph - N/A   Clear
5:35 AM 48.2 °F - 37.4 °F 66% 30.07 in 10.0 mi West 9.2 mph - N/A   Clear
5:55 AM 48.2 °F - 37.4 °F 66% 30.07 in 10.0 mi WNW 5.8 mph - N/A   Clear
6:15 AM 48.2 °F - 37.4 °F 66% 30.08 in 10.0 mi West 6.9 mph - N/A   Clear
6:35 AM 46.4 °F 44.3 °F 37.4 °F 71% 30.08 in 10.0 mi West 4.6 mph - N/A   Clear
6:55 AM 44.6 °F 43.1 °F 37.4 °F 76% 30.08 in 10.0 mi West 3.5 mph - N/A   Clear
7:15 AM 44.6 °F 40.2 °F 39.2 °F 81% 30.08 in 10.0 mi WNW 8.1 mph - N/A   Clear
7:35 AM 46.4 °F 42.9 °F 37.4 °F 71% 30.09 in 10.0 mi WNW 6.9 mph - N/A   Clear
7:55 AM 48.2 °F - 39.2 °F 71% 30.09 in 10.0 mi WNW 8.1 mph - N/A   Clear
8:15 AM 50.0 °F - 39.2 °F 66% 30.09 in 10.0 mi West 9.2 mph - N/A   Clear
8:35 AM 53.6 °F - 39.2 °F 58% 30.10 in 10.0 mi WNW 9.2 mph - N/A   Clear
8:55 AM 55.4 °F - 39.2 °F 54% 30.10 in 10.0 mi WNW 10.4 mph - N/A   Clear
9:15 AM 57.2 °F - 39.2 °F 51% 30.11 in 10.0 mi NW 6.9 mph 18.4 mph N/A   Clear
9:35 AM 59.0 °F - 37.4 °F 45% 30.11 in 10.0 mi NW 9.2 mph 16.1 mph N/A   Clear
9:55 AM 59.0 °F - 37.4 °F 45% 30.11 in 10.0 mi NW 10.4 mph - N/A   Clear
10:15 AM 60.8 °F - 37.4 °F 42% 30.11 in 10.0 mi WNW 10.4 mph 16.1 mph N/A   Clear
10:35 AM 62.6 °F - 37.4 °F 39% 30.10 in 10.0 mi WNW 6.9 mph - N/A   Clear
10:55 AM 64.4 °F - 37.4 °F 37% 30.09 in 10.0 mi WNW 9.2 mph - N/A   Clear
11:15 AM 66.2 °F - 37.4 °F 35% 30.09 in 10.0 mi NW 6.9 mph - N/A   Clear
11:35 AM 66.2 °F - 35.6 °F 32% 30.08 in 10.0 mi West 12.7 mph 18.4 mph N/A   Clear
11:55 AM 68.0 °F - 35.6 °F 30% 30.07 in 10.0 mi NW 8.1 mph 17.3 mph N/A   Clear
12:15 PM 68.0 °F - 35.6 °F 30% 30.06 in 10.0 mi WNW 9.2 mph 18.4 mph N/A   Clear
12:35 PM 71.6 °F - 35.6 °F 27% 30.05 in 10.0 mi NW 9.2 mph 16.1 mph N/A   Clear
12:55 PM 73.4 °F - 32.0 °F 22% 30.04 in 10.0 mi NW 9.2 mph - N/A   Clear
1:15 PM 73.4 °F - 28.4 °F 19% 30.03 in 10.0 mi North 11.5 mph 20.7 mph N/A   Clear
1:35 PM 73.4 °F - 28.4 °F 19% 30.02 in 10.0 mi NNW 11.5 mph 20.7 mph N/A   Clear
1:55 PM 73.4 °F - 28.4 °F 19% 30.01 in 10.0 mi NNW 8.1 mph 16.1 mph N/A   Clear
2:15 PM 73.4 °F - 28.4 °F 19% 30.00 in 10.0 mi NNW 9.2 mph - N/A   Clear
2:35 PM 75.2 °F - 28.4 °F 18% 30.00 in 10.0 mi NW 6.9 mph 16.1 mph N/A   Clear
2:55 PM 75.2 °F - 26.6 °F 17% 30.00 in 10.0 mi North 15.0 mph 21.9 mph N/A   Clear
3:15 PM 75.2 °F - 26.6 °F 17% 30.00 in 10.0 mi North 10.4 mph 16.1 mph N/A   Clear
3:35 PM 75.2 °F - 24.8 °F 15% 30.00 in 10.0 mi North 11.5 mph 21.9 mph N/A   Clear
3:55 PM 75.2 °F - 26.6 °F 17% 29.99 in 10.0 mi NNE 11.5 mph 24.2 mph N/A   Clear
4:15 PM 75.2 °F - 26.6 °F 17% 29.99 in 10.0 mi NE 11.5 mph 17.3 mph N/A   Clear
4:35 PM 73.4 °F - 28.4 °F 19% 29.99 in 10.0 mi NNE 11.5 mph 21.9 mph N/A   Clear
4:55 PM 73.4 °F - 26.6 °F 18% 29.99 in 10.0 mi NNE 17.3 mph 25.3 mph N/A   Clear
5:15 PM 73.4 °F - 26.6 °F 18% 29.99 in 10.0 mi North 10.4 mph 18.4 mph N/A   Clear
5:35 PM 73.4 °F - 26.6 °F 18% 29.99 in 10.0 mi North 11.5 mph 18.4 mph N/A   Clear
5:55 PM 71.6 °F - 28.4 °F 20% 29.99 in 10.0 mi North 12.7 mph 19.6 mph N/A   Clear
6:15 PM 71.6 °F - 26.6 °F 19% 29.99 in 10.0 mi North 5.8 mph - N/A   Clear
6:35 PM 69.8 °F - 26.6 °F 20% 30.00 in 10.0 mi NW 3.5 mph - N/A   Clear
6:55 PM 68.0 °F - 26.6 °F 21% 30.00 in 10.0 mi WNW 5.8 mph - N/A   Clear
7:15 PM 68.0 °F - 24.8 °F 20% 30.00 in 10.0 mi WNW 5.8 mph - N/A   Clear
7:35 PM 68.0 °F - 26.6 °F 21% 30.00 in 10.0 mi NW 6.9 mph - N/A   Clear
7:55 PM 68.0 °F - 24.8 °F 20% 30.00 in 10.0 mi WNW 11.5 mph - N/A   Clear
8:15 PM 68.0 °F - 26.6 °F 21% 30.01 in 10.0 mi West 10.4 mph 20.7 mph N/A   Clear
8:35 PM 68.0 °F - 26.6 °F 21% 30.01 in 10.0 mi West 15.0 mph 20.7 mph N/A   Clear
9:35 PM 68.0 °F - 26.6 °F 21% 30.02 in 10.0 mi West 12.7 mph 19.6 mph N/A   Clear
9:55 PM 66.2 °F - 28.4 °F 24% 30.02 in 10.0 mi Calm Calm - N/A   Clear
10:15 PM 64.4 °F - 26.6 °F 24% 30.02 in 10.0 mi WSW 5.8 mph - N/A   Clear
10:35 PM 66.2 °F - 26.6 °F 23% 30.02 in 10.0 mi WSW 5.8 mph - N/A   Clear
10:55 PM 64.4 °F - 26.6 °F 24% 30.02 in 10.0 mi SSW 3.5 mph - N/A   Clear
11:15 PM 66.2 °F - 26.6 °F 23% 30.01 in 10.0 mi NNW 5.8 mph - N/A   Partly Cloudy
11:35 PM 68.0 °F - 24.8 °F 20% 30.01 in 10.0 mi North 15.0 mph 25.3 mph N/A   Partly Cloudy
11:55 PM 68.0 °F - 24.8 °F 20% 30.02 in 10.0 mi WSW 6.9 mph - N/A   Partly Cloudy